Wind_Speed
3 3 3 4 4 4 5 6 7 7 8 8 9 9 9 9 10 10 11 11 12 12 13 14 14 14 15 16 16 17 17 18 19 19 20 20 20 20 20 20 20 21 21
5 5 5 6 6 5 6 7 8 8 9 10 10 10 11 11 12 13 13 14 14 15 15 15 16 16 16 17 17 18 18 19 19 18 19 19 20 20 21 21 21 22 23
7 7 7 8 8 8 8 8 9 10 11 12 12 12 12 13 14 14 15 15 15 16 16 17 17 16 17 17 18 18 19 19 19 19 19 20 21 22 22 22 23 24 25
9 10 10 10 10 10 10 11 12 12 12 13 13 14 14 14 15 16 16 16 16 16 17 17 18 17 18 19 19 20 20 20 21 22 22 23 23 23 24 24 25 26 26
12 12 12 12 12 12 12 13 14 14 14 15 15 15 16 16 17 17 17 17 17 18 18 19 19 19 19 20 20 21 22 22 23 23 24 24 25 25 26 26 27 27 28
15 14 14 14 13 13 14 15 15 16 16 17 17 17 17 18 18 18 18 19 19 20 20 21 21 21 21 22 22 23 24 24 24 24 25 25 25 26 27 27 27 28 29
18 18 16 16 16 16 17 18 18 18 19 19 20 20 20 20 20 20 20 21 21 22 23 23 23 23 24 24 24 25 25 25 26 26 26 26 27 27 28 28 28 29 29
20 19 19 19 20 20 21 21 21 22 22 22 22 22 22 22 22 22 22 23 23 24 24 24 25 25 26 27 27 26 27 27 27 27 28 28 28 28 28 29 29 29 29
22 22 22 23 23 24 24 24 24 24 24 24 24 25 25 24 24 24 24 25 25 26 26 26 26 26 27 28 29 29 28 28 28 28 28 28 28 29 29 29 29 30 30
25 25 25 26 26 26 27 27 27 27 27 27 27 27 27 27 27 27 27 27 27 28 28 28 29 29 29 29 30 30 30 29 29 30 29 29 29 30 30 30 30 30 30
28 28 28 29 29 29 30 30 30 30 30 31 30 30 30 29 29 29 29 29 29 29 30 30 31 31 30 30 30 29 30 30 30 30 30 30 31 30 30 30 30 30 30
30 30 31 31 31 32 32 32 32 33 33 33 32 32 31 31 30 31 31 32 31 31 31 31 31 32 30 30 30 30 31 30 30 31 31 31 32 31 31 31 32 32 31
32 33 33 34 34 33 33 33 33 33 33 33 31 31 31 31 32 32 33 32 32 32 32 31 32 31 32 32 32 32 31 31 32 32 32 32 32 32 32 32 32 32 32
33 33 34 35 35 34 33 33 33 32 32 33 31 31 31 32 33 33 32 32 32 32 32 32 32 33 33 33 32 32 32 32 32 32 32 32 32 32 33 33 33 33 33
33 33 33 34 34 34 33 33 33 33 34 34 33 33 32 33 34 34 34 34 34 34 34 34 34 34 34 33 34 34 33 33 33 33 33 32 32 33 33 33 33 33 32
34 33 33 33 33 33 33 33 34 35 35 35 34 33 33 34 35 35 36 36 36 35 34 34 34 33 34 34 34 34 34 34 34 34 34 33 33 33 33 33 33 33 33
35 34 34 34 34 34 34 34 35 35 35 34 34 35 35 35 35 35 36 36 36 35 35 35 34 35 36 36 35 35 34 34 34 35 35 34 34 33 33 32 32 32 32
36 36 36 36 36 35 35 35 34 34 34 33 34 35 36 36 36 36 36 36 36 36 36 36 36 36 36 36 35 35 35 35 35 35 35 34 34 33 33 32 31 32 32
37 37 37 37 36 35 35 35 35 35 34 34 34 35 36 36 37 37 37 37 36 36 36 36 36 36 36 35 35 35 36 36 36 36 35 34 34 33 33 32 32 32 32
37 37 36 36 36 36 36 35 34 34 35 35 35 35 36 37 37 37 37 38 38 37 37 36 36 36 36 36 35 35 35 35 35 35 35 34 34 33 33 33 33 33 33
36 36 35 35 36 36 36 35 35 35 35 35 35 36 37 37 37 37 37 38 37 37 37 37 36 36 36 36 36 35 35 34 34 34 34 34 34 34 34 33 33 34 34
34 34 35 35 35 35 35 36 35 34 35 35 35 36 37 37 37 37 37 37 37 38 37 36 36 36 36 36 36 35 34 34 34 34 34 34 35 34 34 34 34 34 33
33 34 34 34 34 35 36 36 35 34 35 36 36 36 37 37 37 38 38 38 38 37 36 36 36 36 36 36 36 35 35 35 34 34 34 35 35 35 35 35 35 34 33
32 32 33 33 34 34 34 35 34 33 34 34 34 35 36 37 37 37 37 37 37 36 36 36 36 35 36 36 36 36 35 35 35 35 35 36 36 36 36 36 36 35 34
31 31 31 32 32 32 33 33 33 33 33 34 34 35 36 36 36 36 36 36 36 35 35 36 36 36 36 36 36 36 35 35 35 35 35 35 35 35 35 35 35 34 33
29 29 29 30 31 32 32 32 33 33 33 33 34 34 34 35 35 35 35 35 35 35 36 36 36 36 36 36 36 36 36 36 35 35 35 35 35 34 34 34 33 32 31
Wind_Direction
295 292 297 309 327 347 356 354 350 344 343 342 341 338 337 334 329 325 322 321 318 314 310 308 305 304 305 302 299 298 296 294 293 291 290 290 291 292 292 291 292 293 294
286 280 290 306 316 323 325 328 331 330 329 328 328 329 330 327 324 319 315 314 313 312 310 309 307 306 307 306 303 302 300 299 297 294 292 291 291 293 293 292 293 294 294
289 288 289 296 303 306 308 311 314 317 320 320 321 321 320 320 318 316 316 313 311 311 312 311 310 309 307 307 305 304 303 301 298 297 294 293 293 294 293 292 292 293 294
284 287 285 286 291 295 300 301 305 310 313 313 313 315 314 315 315 313 313 312 310 310 310 310 309 308 307 306 305 305 303 301 299 297 294 294 292 292 292 292 292 292 294
275 275 281 286 286 293 297 298 300 302 307 308 309 311 313 313 313 314 313 312 311 309 309 307 306 305 305 305 304 303 303 302 301 299 296 294 292 292 292 292 293 293 293
274 276 281 285 288 293 299 299 304 304 304 305 305 308 310 310 311 311 312 312 310 310 309 308 305 303 303 303 302 302 301 301 302 301 299 295 294 293 293 292 293 294 293
274 275 279 284 288 293 295 297 299 301 303 305 304 304 304 305 306 306 307 307 307 306 307 306 306 304 301 301 300 300 301 301 301 300 300 298 296 295 293 293 293 293 294
272 274 276 281 283 286 288 291 293 294 300 301 301 299 300 301 302 303 302 302 305 307 307 307 305 303 302 300 299 300 301 300 301 300 299 299 298 296 294 294 293 294 295
268 268 270 274 277 280 284 286 289 291 293 297 299 300 297 297 298 299 303 305 305 307 305 305 304 303 301 301 299 299 299 298 299 299 298 298 297 297 296 295 295 295 296
267 267 268 270 274 277 280 282 285 287 289 292 294 296 298 299 299 299 299 303 304 305 306 305 305 303 302 300 298 297 297 297 297 297 297 297 297 297 297 296 296 296 296
268 270 272 271 272 274 277 279 282 283 285 288 291 293 296 297 298 298 298 300 302 304 305 305 305 304 301 300 298 297 296 295 296 296 296 296 297 297 297 296 296 295 295
267 269 271 273 274 276 277 279 281 284 286 287 288 291 292 294 296 297 296 296 299 302 304 304 304 303 302 302 301 300 298 296 295 295 295 295 296 295 296 295 295 295 294
269 268 270 273 275 278 279 280 282 284 286 289 288 289 290 292 294 296 297 296 296 298 300 300 301 301 302 302 301 299 297 296 295 294 294 294 295 294 293 294 295 294 293
269 269 271 272 275 277 279 280 282 285 287 288 289 289 289 290 294 296 297 297 296 296 297 297 297 298 299 299 299 299 297 296 295 296 296 296 295 293 293 293 293 294 294
269 271 274 275 276 277 278 280 281 283 285 287 287 288 290 292 294 295 297 297 296 296 296 296 296 297 299 299 298 298 297 297 295 296 297 297 296 294 293 292 292 293 292
271 272 274 275 275 276 277 280 282 284 284 284 285 287 289 291 292 293 295 296 295 295 295 295 296 297 298 298 297 297 296 296 296 296 296 296 295 294 293 293 292 291 291
272 272 273 273 274 275 276 280 281 281 282 283 285 287 289 290 291 292 293 294 294 295 296 296 295 296 297 297 297 297 297 296 297 297 297 296 296 295 295 294 294 292 292
269 270 270 272 273 275 277 279 282 283 283 283 285 287 289 290 290 291 291 292 294 294 294 295 295 296 296 296 295 295 295 296 297 297 296 296 295 296 295 294 294 294 293
268 268 269 271 272 273 275 277 280 282 283 284 286 288 289 289 288 289 290 291 293 293 293 294 295 295 295 296 295 295 295 295 296 296 295 295 294 294 294 294 293 294 293
268 268 267 268 270 272 274 276 277 279 281 283 286 287 288 288 287 288 290 292 292 291 292 293 294 295 296 296 296 297 296 296 295 295 295 295 294 293 293 293 293 293 292
268 269 269 270 271 273 274 273 275 277 280 282 284 286 287 287 288 288 290 291 292 291 292 292 292 293 294 294 295 296 296 296 296 296 295 295 293 292 292 292 292 291 291
268 268 269 271 272 273 273 273 274 277 280 281 284 285 287 288 289 290 290 290 290 290 291 292 292 293 293 294 295 295 296 297 296 295 294 294 293 292 292 292 292 291 290
268 270 270 270 271 273 274 275 276 278 280 283 284 285 286 287 288 289 290 290 291 291 290 290 291 292 292 294 295 294 295 295 295 294 293 293 292 291 292 292 291 291 289
268 269 269 270 272 274 276 277 278 279 282 284 285 286 287 288 288 289 289 290 292 291 290 290 290 291 291 292 294 294 293 293 293 294 293 293 292 291 290 290 291 291 289
267 269 270 271 272 274 277 279 279 280 282 283 285 286 288 288 289 289 290 291 292 291 289 289 288 289 290 291 292 293 293 293 293 293 293 292 291 291 291 291 291 290 288
268 270 271 273 274 275 277 279 278 279 281 283 285 287 288 289 290 290 290 291 291 291 290 290 289 290 290 291 293 293 294 294 292 292 293 293 293 293 293 292 291 290 287
Height
5895 5895 5895 5894 5893 5892 5892 5891 5890 5889 5888 5887 5885 5884 5882 5880 5879 5877 5875 5874 5872 5870 5869 5867 5866 5864 5862 5861 5859 5858 5856 5855 5854 5852 5850 5849 5847 5846 5844 5843 5841 5840 5838
5895 5894 5894 5893 5892 5892 5891 5890 5889 5888 5887 5885 5884 5882 5881 5879 5877 5875 5873 5871 5869 5867 5866 5864 5862 5861 5859 5857 5855 5854 5852 5850 5848 5847 5845 5844 5842 5841 5839 5837 5836 5834 5833
5893 5893 5892 5892 5891 5890 5889 5888 5887 5886 5885 5883 5881 5880 5878 5876 5874 5872 5870 5868 5866 5864 5862 5861 5859 5857 5855 5853 5851 5849 5847 5845 5844 5842 5840 5838 5837 5835 5833 5832 5830 5828 5826
5891 5891 5890 5889 5888 5888 5887 5885 5884 5883 5882 5881 5879 5877 5875 5873 5871 5869 5867 5865 5862 5860 5859 5857 5855 5852 5851 5849 5847 5844 5842 5840 5838 5836 5835 5833 5831 5829 5827 5825 5823 5821 5819
5888 5887 5886 5886 5885 5884 5883 5882 5881 5880 5879 5878 5876 5874 5872 5870 5868 5866 5863 5861 5859 5856 5854 5852 5850 5848 5846 5844 5842 5839 5837 5835 5833 5831 5829 5827 5825 5822 5820 5818 5816 5814 5812
5885 5884 5884 5882 5881 5881 5879 5878 5877 5876 5875 5874 5872 5870 5868 5866 5864 5862 5859 5857 5855 5853 5850 5847 5845 5843 5841 5839 5836 5834 5832 5829 5827 5825 5822 5820 5818 5816 5813 5811 5809 5807 5805
5881 5880 5879 5878 5877 5877 5876 5875 5874 5872 5871 5870 5868 5866 5864 5862 5860 5857 5855 5853 5850 5848 5845 5843 5840 5838 5835 5833 5830 5828 5825 5823 5821 5818 5816 5813 5811 5809 5806 5804 5801 5799 5797
5875 5875 5876 5875 5874 5873 5872 5871 5869 5868 5866 5865 5863 5861 5859 5857 5855 5852 5850 5847 5845 5843 5840 5837 5834 5832 5829 5826 5824 5822 5819 5816 5813 5811 5809 5806 5804 5801 5798 5796 5793 5791 5788
5870 5870 5870 5869 5868 5868 5866 5865 5863 5863 5861 5859 5857 5855 5853 5851 5849 5846 5844 5841 5839 5836 5833 5830 5828 5825 5822 5819 5817 5814 5811 5809 5806 5803 5801 5798 5796 5793 5790 5788 5785 5783 5780
5863 5863 5862 5862 5861 5861 5860 5859 5858 5856 5855 5853 5851 5849 5847 5845 5843 5840 5838 5835 5832 5829 5826 5823 5821 5818 5815 5811 5808 5806 5803 5800 5798 5796 5793 5791 5788 5785 5782 5780 5777 5774 5772
5855 5855 5855 5854 5854 5853 5852 5851 5850 5849 5847 5846 5844 5842 5840 5837 5835 5832 5830 5827 5825 5822 5819 5816 5813 5810 5806 5803 5801 5798 5795 5792 5790 5788 5785 5783 5780 5777 5774 5771 5768 5766 5764
5846 5846 5846 5846 5845 5844 5843 5842 5841 5840 5839 5837 5835 5833 5831 5829 5827 5824 5821 5819 5816 5814 5811 5808 5805 5802 5798 5795 5793 5790 5787 5784 5782 5779 5777 5774 5771 5768 5765 5762 5760 5757 5755
5837 5837 5837 5837 5836 5835 5834 5832 5831 5831 5829 5828 5826 5824 5822 5820 5818 5815 5812 5810 5807 5805 5802 5799 5797 5794 5791 5788 5785 5782 5779 5776 5773 5771 5768 5765 5762 5759 5756 5754 5751 5748 5746
5827 5828 5828 5827 5826 5825 5824 5823 5823 5821 5820 5819 5817 5815 5813 5811 5809 5806 5804 5801 5798 5796 5793 5790 5788 5785 5782 5779 5776 5773 5770 5767 5764 5761 5758 5756 5753 5750 5747 5744 5742 5739 5737
5817 5817 5817 5817 5817 5816 5815 5814 5813 5812 5811 5809 5808 5806 5804 5802 5800 5798 5795 5792 5789 5787 5784 5781 5779 5776 5773 5770 5767 5764 5761 5758 5755 5752 5749 5746 5743 5741 5738 5735 5733 5730 5728
5806 5807 5807 5807 5807 5806 5805 5805 5803 5802 5801 5799 5798 5797 5795 5793 5791 5789 5786 5783 5780 5777 5775 5772 5769 5766 5763 5760 5757 5754 5751 5748 5745 5742 5739 5737 5734 5731 5728 5726 5723 5720 5718
5795 5796 5796 5796 5796 5796 5795 5794 5793 5792 5790 5789 5787 5786 5785 5782 5780 5778 5776 5773 5770 5768 5765 5762 5759 5756 5754 5751 5747 5744 5741 5739 5736 5732 5729 5727 5724 5721 5719 5716 5713 5711 5708
5784 5785 5785 5786 5785 5785 5784 5783 5782 5781 5780 5779 5777 5776 5774 5772 5770 5768 5766 5763 5761 5758 5755 5752 5749 5746 5744 5741 5737 5734 5732 5729 5726 5723 5720 5717 5714 5711 5709 5706 5704 5702 5699
5773 5774 5774 5774 5774 5774 5773 5773 5772 5771 5770 5769 5767 5765 5763 5761 5759 5757 5755 5753 5750 5748 5745 5742 5739 5736 5733 5730 5727 5724 5721 5719 5716 5712 5709 5706 5704 5701 5699 5697 5695 5692 5690
5762 5762 5762 5763 5763 5763 5762 5762 5761 5760 5759 5758 5756 5755 5753 5751 5749 5746 5744 5742 5739 5737 5734 5732 5729 5726 5723 5720 5717 5714 5711 5708 5705 5702 5699 5696 5694 5691 5689 5687 5685 5682 5680
5751 5751 5751 5752 5752 5752 5751 5751 5750 5750 5748 5747 5745 5744 5742 5740 5738 5736 5733 5731 5728 5725 5723 5720 5718 5715 5712 5709 5706 5703 5700 5697 5695 5692 5689 5686 5684 5681 5679 5677 5674 5672 5670
5741 5741 5741 5741 5741 5741 5741 5740 5739 5739 5737 5736 5735 5733 5731 5729 5727 5725 5722 5720 5717 5714 5712 5709 5706 5704 5701 5698 5695 5693 5690 5687 5684 5682 5679 5676 5674 5671 5669 5666 5664 5662 5660
5730 5731 5731 5731 5731 5730 5730 5729 5728 5727 5727 5725 5724 5722 5721 5718 5716 5714 5711 5709 5706 5703 5700 5698 5695 5693 5690 5687 5685 5682 5679 5677 5674 5671 5668 5666 5663 5661 5658 5656 5653 5651 5649
5720 5720 5720 5720 5721 5720 5720 5719 5718 5717 5716 5714 5713 5711 5710 5707 5705 5703 5700 5697 5694 5692 5689 5687 5684 5682 5679 5676 5674 5671 5668 5665 5662 5660 5657 5655 5652 5649 5647 5645 5642 5640 5638
5710 5710 5710 5710 5711 5711 5710 5709 5708 5707 5705 5704 5702 5700 5698 5696 5694 5691 5689 5686 5683 5681 5678 5676 5673 5671 5668 5665 5662 5659 5657 5654 5651 5649 5646 5644 5641 5638 5636 5633 5631 5629 5627
5701 5701 5701 5701 5701 5701 5700 5699 5697 5696 5695 5693 5691 5690 5688 5685 5683 5680 5678 5675 5673 5670 5667 5665 5662 5659 5657 5654 5651 5648 5645 5643 5640 5638 5635 5632 5630 5627 5625 5622 5620 5618 5616